Regional Weather Roundup
Issued by NWS

Home | Current Version | Previous Version | Text Only | Print | Product List | Glossary On
Versions: 1 2 3 4 5 6 7 8 9 10 11 12 13 14 15 16 17 18 19 20 21 22 23 24 25 26 27 28 29 30 31 32 33 34 35 36 37 38 39 40 41 42 43 44 45 46 47 48 49 50
000
ASUS43 KOAX 291502
RWRNE

WEATHER ROUNDUP FOR NEBRASKA
NATIONAL WEATHER SERVICE OMAHA NE
1000 AM CDT SUN MAR 29 2015

NOTES: SATELLITE DATA IS BEING USED TO AUGMENT CLOUD COVER ABOVE
       12000 FEET.
       "FAIR" INDICATES FEW OR NO CLOUDS BELOW 12,000 FEET WITH NO
       SIGNIFICANT WEATHER AND/OR OBSTRUCTIONS TO VISIBILITY.

  * THESE STATIONS DO NOT REPORT WEATHER SUCH AS RAIN...SNOW OR FOG.

NEZ001>004-019>022-054>056-291600-
NEBRASKA PANHANDLE

CITY           SKY/WX    TMP DP  RH WIND       PRES   REMARKS
SCOTTSBLUFF    SUNNY     49  31  49 NW25G32   30.26R
ALLIANCE       SUNNY     48  28  46 NW35G43   30.21R
CHADRON        SUNNY     50  29  44 NW26G38   30.22R
KIMBALL        SUNNY     46  27  48 NW23G32   30.27R
SIDNEY         SUNNY     48  28  46 N38G49    30.23R
$$

NEZ057>060-069>072-079>082-291600-
SOUTHWEST NEBRASKA

CITY           SKY/WX    TMP DP  RH WIND       PRES   REMARKS
NORTH PLATTE   SUNNY     53  28  38 NW30G41   30.13R
IMPERIAL         N/A     53  28  38 N33G40    30.18R
LEXINGTON      SUNNY     55  32  41 NW35G48   30.10R
MCCOOK         SUNNY     59  29  31 NW25G35   30.13R
OGALLALA       SUNNY     51  30  43 NW32G43   30.16R
$$

NEZ005>010-023>029-035>040-094-291600-
NORTH CENTRAL NEBRASKA

CITY           SKY/WX    TMP DP  RH WIND       PRES   REMARKS
VALENTINE      MOSUNNY   49  32  52 NW36G51   30.09R HAZE
AINSWORTH      CLOUDY    49  33  54 NW37G46   30.08R
BROKEN BOW     MOSUNNY   54  33  45 NW32G51   30.05R
O`NEILL        CLOUDY    48  36  62 NW38G51   30.01R
ORD            CLOUDY    53  32  44 NW40G53   30.02R HAZE
THEDFORD       SUNNY     50  32  49 NW37G52   30.11R
$$

NEZ041-046>049-061>064-073>077-083>087-291600-
SOUTH CENTRAL NEBRASKA

CITY           SKY/WX    TMP DP  RH WIND       PRES   REMARKS
GRAND ISLAND   MOSUNNY   56  34  43 NW36G45   30.03R
AURORA         PTSUNNY   57  35  44 NW32G41   30.01R
HASTINGS       PTSUNNY   56  34  43 NW25G35   30.03R
HEBRON         MOSUNNY   59  35  40 NW12      30.00R
HOLDREGE       PTSUNNY   55  32  41 N23G36    30.07R
KEARNEY *      MOSUNNY   55  34  44 NW29G41   30.06R
YORK           PTSUNNY   55  37  50 NW29G36   29.98R
$$

NEZ011>018-030>034-042>045-291600-
NORTHEAST NEBRASKA

CITY           SKY/WX    TMP DP  RH WIND       PRES   REMARKS
NORFOLK        CLOUDY    52  38  58 NW25G41   29.92R
ALBION         CLOUDY    53  36  52 NW29G46   29.98R
BLAIR          CLOUDY    51  38  61 W9        29.91R
COLUMBUS *     MOSUNNY   57  37  47 NW39G46   29.95S
FREMONT        MOSUNNY   55  38  52 W17       29.92R
TEKAMAH        MOSUNNY   58  37  45 W26G33    29.89R
WAYNE          CLOUDY    53  38  57 NW36G44   29.92R
$$

NEZ050>053-065>068-078-088>093-291600-
SOUTHEAST NEBRASKA

CITY           SKY/WX    TMP DP  RH WIND       PRES   REMARKS
LINCOLN        CLOUDY    57  38  48 NW10      29.97R
OMAHA EPPLEY   CLOUDY    51  39  63 W12       29.92R
BEATRICE       PTSUNNY   54  42  63 W9        29.98R
FALLS CITY     PTSUNNY   49  40  71 SW7       29.95F
NEBRASKA CITY  CLOUDY    50  38  64 SW16      29.94R
PLATTSMOUTH    CLOUDY    51  39  62 SW12      29.93R
$$

NEZ044-045-051>053-067-291600-
OMAHA AREA

CITY           SKY/WX    TMP DP  RH WIND       PRES   REMARKS
OMAHA EPPLEY   CLOUDY    51  39  63 W12       29.92R
BLAIR          CLOUDY    51  38  61 W9        29.91R
FREMONT        MOSUNNY   55  38  52 W17       29.92R
MILLARD        PTSUNNY   52  40  63 W8        29.93R
OFFUTT AFB     CLOUDY    51  40  64 W9G20     29.92R
PLATTSMOUTH    CLOUDY    51  39  62 SW12      29.93R
WAHOO          FAIR      57  33  39 NW24      29.93R
$$



USA.gov is the U.S. government's official web portal to all federal, state and local government web resources and services.